GFSGBSN_925_thetae_063.txt.gz
Theta_e
312 312 312 312 312 311 312 312 312 313 312 313 312 312 316 316 317 317 317 316 315 315 315 314 314 312 311 319 316 318 314 317 315 317 320 326 326 325 327 322 323 324 323 320 319 319 318
312 312 312 312 312 312 312 311 311 311 312 312 312 311 316 316 316 316 316 315 315 315 314 313 313 312 315 316 316 315 313 314 316 319 320 321 324 323 323 320 323 320 320 319 318 319 318
312 312 312 312 311 312 312 312 311 311 311 311 312 312 314 315 315 315 315 316 315 314 313 312 312 313 318 315 318 313 312 314 316 319 320 319 319 322 320 320 320 318 321 317 318 318 319
312 312 312 312 312 312 311 312 312 310 311 311 311 313 312 312 313 314 314 316 314 313 312 311 313 316 314 314 316 315 312 314 318 319 319 318 319 322 320 316 315 318 317 324 317 318 317
311 312 312 312 312 312 312 311 311 311 310 311 310 311 313 313 313 314 314 315 313 311 310 311 315 316 318 316 312 312 313 314 316 317 317 318 319 319 316 318 319 315 325 319 319 317 318
312 311 312 312 311 311 312 311 311 311 311 311 311 311 312 313 313 314 314 312 309 310 312 314 316 316 314 312 312 313 314 315 314 318 317 317 318 317 315 320 329 324 317 314 317 316 318
312 311 312 312 312 311 312 311 311 311 311 311 311 312 312 312 313 314 313 309 308 313 314 312 316 317 313 313 313 314 314 314 314 316 317 315 318 320 320 320 315 316 316 316 314 314 318
312 312 312 311 311 312 312 311 311 311 311 311 311 312 313 312 313 314 312 308 309 312 315 313 313 315 315 315 315 314 314 314 314 315 317 318 317 317 319 318 319 317 316 316 315 316 318
312 312 312 311 312 311 311 311 311 311 312 312 312 313 313 313 313 313 311 308 311 311 315 314 315 315 314 315 316 315 315 313 314 317 316 315 318 315 317 316 317 316 316 315 317 316 315
312 312 312 311 311 311 311 311 311 312 311 313 313 313 313 313 313 310 310 311 314 313 313 314 315 316 316 317 317 314 314 315 316 316 314 315 316 316 316 317 316 318 316 317 317 318 319
312 312 312 311 311 310 310 311 313 313 312 313 313 313 314 313 311 313 316 314 314 312 319 315 317 315 317 316 316 315 312 316 317 316 314 315 316 316 317 316 315 317 315 316 315 315 315
313 312 312 311 311 310 310 312 313 313 311 314 309 313 313 313 312 310 313 314 313 317 318 317 317 317 317 317 317 314 314 311 312 314 314 315 313 314 315 313 314 314 312 312 313 314 316
313 313 312 312 311 310 309 312 314 313 308 309 308 310 313 310 315 315 312 311 316 321 315 316 316 314 316 319 318 315 311 309 313 314 315 314 314 312 313 315 313 312 316 319 315 317 315
313 312 312 310 310 309 309 307 310 307 307 307 309 309 310 308 309 310 311 313 319 317 317 315 315 315 315 316 315 315 314 311 307 310 312 313 313 313 310 313 315 313 316 317 315 315 317
312 312 312 309 305 307 306 306 306 307 307 307 308 309 309 312 311 312 310 311 316 317 314 318 315 315 317 315 316 314 313 311 307 307 313 313 313 309 308 309 311 313 316 310 311 306 310
310 312 312 311 303 305 306 306 306 307 307 308 308 309 311 310 312 311 311 315 313 311 313 315 316 315 317 315 316 315 314 310 308 305 305 308 310 307 308 308 307 311 309 313 311 314 310
311 310 312 312 305 304 305 305 306 308 308 308 308 308 308 310 311 308 310 311 312 310 310 315 316 316 315 315 314 313 312 310 308 305 304 304 307 306 306 308 311 310 310 307 308 308 313
312 311 310 310 311 304 305 306 307 308 307 311 305 310 306 310 310 303 311 311 309 310 309 311 312 313 315 312 312 311 313 310 305 305 306 303 304 307 306 303 304 306 308 308 313 309 305
312 311 310 310 311 304 305 306 308 308 310 310 307 305 306 309 309 308 307 309 308 310 307 310 310 309 308 309 313 311 310 305 306 305 305 303 303 305 306 307 306 305 305 304 304 306 308
312 312 312 310 311 308 305 306 309 308 311 308 302 306 303 302 301 309 309 310 309 306 307 306 307 307 308 308 308 310 307 306 305 308 309 304 301 304 309 309 307 307 304 305 306 309 308
313 311 312 310 311 310 305 306 309 308 310 307 300 304 302 307 308 306 307 308 308 309 306 304 306 307 308 308 307 309 307 304 306 309 303 301 303 303 304 304 306 307 307 304 305 304 309
314 313 311 311 311 311 306 306 309 309 310 308 304 304 298 299 302 305 307 307 307 305 306 307 305 304 304 306 307 308 306 304 305 305 303 301 305 305 306 306 306 308 308 306 305 304 303
313 312 312 311 311 312 308 305 309 309 310 308 303 301 302 300 301 304 304 306 307 302 303 303 303 302 304 304 302 302 301 301 304 304 304 304 305 308 312 304 306 310 307 307 307 305 305
316 312 313 311 310 312 311 306 307 310 310 308 305 303 303 305 301 304 304 305 304 304 303 303 302 303 301 298 299 301 301 301 302 300 301 304 304 305 310 305 310 306 303 305 306 305 304
304 313 311 312 310 312 312 307 306 309 310 309 307 305 304 308 302 305 303 302 302 301 302 303 301 299 297 302 304 307 307 307 303 300 300 301 303 305 309 306 304 303 304 306 307 307 305
305 313 311 312 311 310 312 310 307 305 309 310 308 309 306 307 307 303 303 302 303 302 302 302 300 299 302 303 307 311 314 309 308 305 301 300 299 305 304 304 305 301 303 302 303 308 304
303 310 312 312 311 311 313 311 307 307 305 309 308 308 306 307 301 302 302 303 301 301 301 301 301 302 301 304 308 310 310 307 309 308 305 302 301 305 306 305 305 301 302 302 307 307 304
304 303 306 313 311 311 313 309 308 307 307 306 307 307 307 301 301 302 302 301 301 301 303 300 302 301 301 305 307 307 306 307 305 304 304 305 304 304 302 305 306 302 302 307 305 301 301
306 302 304 313 311 311 312 309 308 307 309 305 307 307 307 301 301 301 301 302 302 301 299 297 304 300 302 303 302 301 306 302 304 306 300 306 303 306 304 305 300 301 302 300 300 301 300

GFSGBSN_925_thetae_069.txt.gz
Theta_e
313 313 313 312 312 312 313 312 312 312 312 314 315 313 314 312 316 316 317 317 316 316 317 316 314 313 316 317 316 315 316 327 325 323 323 327 334 332 334 334 335 334 335 331 330 328 328
313 313 312 313 313 313 313 312 312 311 311 311 314 313 313 313 315 315 315 315 315 316 316 315 314 313 318 319 314 314 316 326 326 323 324 326 334 334 332 331 331 330 332 329 326 327 327
313 313 314 313 313 313 313 312 312 312 312 311 313 313 312 313 313 314 314 314 314 315 314 315 315 317 318 318 314 318 317 316 322 323 325 326 331 332 333 331 327 328 329 328 328 327 328
314 313 313 313 313 314 313 312 312 311 311 311 312 312 311 313 312 312 313 313 314 314 315 317 315 317 319 315 314 314 315 317 316 319 324 325 326 333 331 326 326 330 332 334 328 326 325
315 314 313 313 313 314 313 312 312 311 311 311 311 312 311 311 313 312 313 313 313 314 314 313 317 317 318 315 315 314 317 316 318 320 322 325 327 330 328 331 332 329 340 340 339 327 327
312 313 313 312 313 312 312 312 312 312 311 312 311 311 312 311 312 313 313 313 313 314 314 315 315 318 317 318 318 317 318 316 320 322 323 326 330 333 331 334 340 339 338 340 340 337 324
312 312 312 313 312 312 312 312 312 312 311 311 311 311 312 312 312 312 313 316 316 318 314 316 316 316 318 317 315 315 315 318 320 323 328 327 333 336 337 334 334 336 337 337 335 320 321
312 312 312 313 313 312 312 312 312 311 311 311 311 311 312 312 312 312 313 316 314 315 319 318 315 314 315 315 317 316 316 319 321 325 328 327 334 334 335 335 334 332 334 336 330 321 321
314 312 313 313 312 311 311 311 311 311 311 311 312 312 312 312 312 313 315 315 313 314 320 319 318 317 317 317 318 317 318 319 321 325 331 331 331 329 336 328 328 330 332 331 328 324 323
313 313 313 312 312 311 311 311 311 311 311 311 311 312 312 313 314 314 316 314 315 316 325 319 319 318 318 320 318 318 318 319 319 323 328 332 324 325 328 333 330 335 328 325 324 322 322
313 313 313 312 312 311 310 310 311 312 312 312 311 311 312 312 317 319 318 316 315 317 326 318 318 317 319 321 318 318 317 320 320 322 325 324 321 324 329 327 328 330 322 322 323 322 321
313 313 312 311 312 311 311 310 311 311 312 313 311 312 308 315 315 316 315 313 316 328 323 320 318 319 320 321 319 319 319 320 321 320 321 322 321 322 323 321 321 321 322 322 322 321 321
312 313 312 311 312 312 311 310 311 312 312 314 312 311 311 315 320 315 313 317 324 323 318 319 319 319 321 322 319 318 318 321 320 323 325 321 321 319 320 321 321 321 322 323 325 326 321
313 312 311 310 310 312 311 310 310 311 314 313 310 310 313 313 314 314 315 321 325 322 320 319 318 318 321 320 320 319 320 320 318 319 323 323 322 321 318 321 322 321 321 321 320 320 322
318 315 311 311 311 310 311 309 308 311 313 312 311 313 314 314 315 315 320 323 321 320 319 321 317 320 323 318 320 320 320 320 317 316 322 324 321 315 316 318 319 321 319 320 320 319 319
319 318 316 310 311 311 310 310 308 309 313 312 314 312 312 314 313 316 320 322 320 316 316 317 322 319 324 321 320 321 319 317 317 313 314 318 320 316 315 316 317 320 318 320 320 319 321
319 318 316 314 310 310 309 310 308 309 312 312 313 314 313 311 315 318 319 319 318 315 315 318 321 321 320 320 320 321 320 316 314 314 313 316 318 316 315 318 321 318 319 318 319 319 319
317 317 317 315 312 311 309 309 307 311 311 311 312 314 310 312 318 319 317 318 310 316 315 316 318 320 321 319 320 321 319 318 311 312 317 314 319 318 317 312 312 316 319 319 319 319 316
310 317 316 315 314 311 310 308 308 309 311 312 313 314 310 313 319 321 319 316 315 316 316 316 317 317 317 320 322 320 318 311 311 312 314 314 316 316 315 313 311 313 315 315 316 316 317
304 312 316 316 313 312 311 309 310 307 312 311 315 315 314 314 316 318 318 318 316 312 314 312 314 313 316 318 317 319 316 312 311 314 310 312 315 316 318 319 316 313 313 313 314 317 318
308 304 309 315 315 312 312 308 311 307 312 312 313 315 314 316 316 317 316 316 316 316 312 311 313 313 315 316 317 317 315 312 313 313 311 313 314 311 311 311 312 313 313 313 313 315 316
307 308 305 305 313 314 312 310 311 308 311 313 315 314 312 314 313 315 315 316 316 316 314 314 313 313 313 315 315 317 315 314 313 311 311 311 314 312 313 312 312 313 313 313 313 313 313
307 306 307 306 306 313 312 311 309 310 310 312 311 313 312 312 313 314 316 316 316 315 310 310 311 312 312 311 311 312 312 311 312 312 311 311 314 316 319 315 315 318 317 317 316 314 314
307 306 306 306 305 311 312 311 310 312 308 312 312 310 315 314 314 314 313 313 314 313 312 309 309 311 309 309 311 311 311 311 311 311 312 313 315 317 322 317 319 313 311 312 314 313 313
307 307 306 306 306 308 313 312 311 311 311 310 313 309 313 315 315 314 312 312 311 308 310 309 308 308 309 310 312 313 314 313 311 310 311 312 315 319 322 319 315 311 309 311 311 311 312
306 307 306 306 307 306 309 311 310 310 311 309 310 312 311 315 315 314 312 311 313 312 309 307 305 308 309 312 315 320 322 319 317 313 309 311 313 317 315 328 320 311 309 309 310 311 311
306 306 306 307 307 308 307 304 309 311 310 310 310 312 312 314 314 310 312 311 311 312 312 308 307 307 308 313 316 322 321 317 319 317 314 313 313 316 316 318 314 310 309 310 310 314 311
306 306 306 306 306 307 305 306 311 311 310 310 310 311 311 313 313 307 308 309 309 311 312 309 308 308 309 313 317 320 321 318 317 315 314 315 317 315 314 316 318 310 309 311 313 310 311
306 306 306 305 306 307 304 305 306 307 311 309 310 309 308 310 311 304 304 304 305 306 311 309 313 311 313 315 316 320 320 318 318 315 312 314 312 314 314 316 311 310 311 310 310 311 310

GFSGBSN_925_thetae_072.txt.gz
Theta_e
314 314 314 313 313 313 314 314 314 313 313 313 314 315 315 315 313 316 316 316 316 317 318 317 317 317 317 317 318 315 314 316 327 324 319 325 329 333 336 335 337 340 339 336 332 331 330
313 313 314 313 313 313 313 314 313 313 313 312 313 315 315 314 314 314 315 314 314 315 316 315 315 317 318 319 316 316 314 316 327 323 322 326 329 334 336 336 336 332 337 333 329 329 329
313 313 314 313 313 313 313 314 313 312 312 312 313 314 315 313 313 312 312 313 314 314 314 313 316 318 318 318 316 316 316 318 318 326 325 325 327 335 336 335 330 331 334 332 332 331 328
314 313 314 314 313 314 315 313 312 312 311 311 313 313 313 312 312 314 313 312 313 313 313 313 317 317 318 316 316 316 315 316 317 320 324 325 327 333 336 329 329 333 333 338 331 329 326
315 313 313 313 314 313 313 313 313 312 312 311 312 312 312 311 311 311 312 312 313 313 313 314 317 317 319 316 317 316 314 316 318 317 320 325 328 332 336 334 334 334 340 341 334 333 329
315 313 312 312 313 312 312 313 313 312 312 311 312 311 311 312 312 312 313 312 312 315 315 317 316 317 316 319 317 316 314 317 318 320 324 326 329 334 334 336 343 338 336 339 341 341 336
314 314 314 313 313 312 312 312 312 312 312 311 311 311 311 312 312 312 313 316 317 320 316 317 317 316 316 316 316 317 318 318 319 323 327 327 332 337 332 334 336 336 337 339 332 328 335
314 314 314 314 314 312 311 311 312 312 311 312 312 311 311 311 312 312 312 318 314 315 318 318 318 317 315 314 316 317 316 317 322 325 326 329 334 333 333 332 334 335 337 340 334 322 325
313 314 314 314 313 313 311 311 311 311 312 312 312 311 311 312 312 314 315 316 316 317 321 321 319 319 318 317 318 317 317 319 321 324 327 332 331 331 332 335 335 335 334 335 332 325 329
314 314 314 311 312 312 311 310 311 311 311 311 311 311 312 311 315 318 318 318 317 316 326 320 319 318 317 319 319 318 317 320 321 324 328 329 328 330 337 335 333 334 331 331 331 327 332
314 314 313 311 311 312 311 311 310 311 311 311 311 310 312 311 315 318 317 316 315 318 326 319 319 317 319 321 319 317 318 321 321 323 328 331 328 330 332 333 332 330 326 330 331 326 323
313 314 312 310 310 312 311 308 309 311 311 312 312 311 312 314 316 317 317 315 315 329 323 321 318 319 319 320 319 318 318 320 322 322 324 323 323 327 328 322 322 323 324 323 322 322 322
316 313 312 310 310 310 311 310 310 309 311 312 313 314 312 314 319 316 315 316 327 329 321 321 319 320 321 322 320 316 318 320 322 324 325 322 322 321 323 325 323 323 323 328 329 326 325
319 316 314 311 311 310 310 309 308 308 307 312 312 313 313 314 314 315 316 321 329 321 322 320 319 318 322 321 320 319 318 322 321 322 327 325 323 322 322 322 323 322 323 324 325 326 324
319 318 316 314 311 310 309 308 306 306 309 309 310 310 314 315 316 316 319 326 321 320 319 321 322 322 325 323 320 320 320 322 318 316 320 327 321 316 317 318 318 322 320 320 320 318 318
318 318 318 316 313 311 309 309 306 305 307 310 314 316 315 314 315 317 320 322 320 317 318 322 326 322 325 324 321 321 321 318 319 314 314 319 319 318 316 317 317 320 318 321 319 319 322
316 317 316 317 315 312 310 308 307 306 306 307 313 315 315 315 315 318 320 319 318 317 316 318 321 323 324 325 322 322 321 317 315 317 316 317 318 317 317 319 320 318 319 318 318 320 319
311 315 316 316 315 313 311 309 308 307 308 308 313 315 312 314 318 319 320 318 311 317 316 316 318 321 322 319 321 322 321 319 313 314 318 316 319 318 316 312 313 316 319 318 319 319 317
302 302 316 314 316 313 312 309 310 306 309 315 314 314 312 313 317 320 320 318 316 316 317 316 317 318 318 320 322 321 319 312 313 315 316 314 317 316 315 313 312 314 316 317 316 317 318
305 302 308 315 314 314 312 311 310 307 307 313 313 316 314 313 314 315 318 319 319 314 314 314 314 314 317 318 319 321 318 313 313 315 313 312 317 316 319 319 315 313 314 314 314 315 315
308 305 305 304 313 312 313 312 310 309 308 312 312 312 315 315 316 314 316 318 318 318 314 313 314 314 315 317 317 318 316 313 313 313 312 313 317 312 311 311 311 313 314 313 313 313 314
309 309 309 306 304 311 313 312 310 310 311 312 312 315 314 314 314 313 314 317 317 317 315 316 314 314 313 315 314 317 317 315 315 312 312 312 316 312 313 312 313 313 313 313 313 313 312
308 308 307 305 305 304 309 313 311 310 311 312 311 311 312 315 315 314 313 315 317 316 313 312 311 313 313 312 312 312 312 311 312 312 312 312 314 316 319 316 316 318 316 316 315 314 314
308 307 306 306 304 306 309 313 311 310 310 311 313 312 313 315 315 315 314 315 314 315 315 310 310 311 310 310 311 311 311 311 311 311 312 313 315 318 324 319 320 314 311 312 316 314 313
307 307 307 306 305 305 306 313 312 311 311 311 310 314 313 314 314 315 315 314 313 310 311 310 308 309 310 311 313 313 313 313 311 310 311 312 316 320 323 321 317 311 310 311 311 312 312
307 307 307 307 306 306 307 305 312 310 311 311 312 311 314 313 313 314 314 314 313 312 310 308 306 308 309 313 316 318 324 319 317 313 310 311 312 316 317 325 320 312 309 310 310 310 311
307 307 307 307 307 307 307 307 306 305 309 311 312 310 313 314 313 312 313 312 313 313 313 308 308 308 308 314 317 326 322 318 320 318 313 313 314 316 317 321 317 310 309 310 311 313 311
306 307 307 307 306 306 306 306 305 306 307 311 311 311 313 314 314 312 309 310 311 311 313 308 309 309 309 312 318 322 321 319 318 315 315 315 319 315 314 317 315 309 309 311 312 311 310
307 307 307 305 305 305 305 306 304 306 310 310 310 311 311 312 313 307 306 306 306 307 308 308 312 310 312 313 317 324 322 320 320 319 313 314 314 316 317 317 311 308 312 310 310 310 310

GFSGBSN_925_thetae_075.txt.gz
Theta_e
314 314 314 314 314 313 314 314 313 313 314 314 313 314 315 315 315 313 314 315 315 317 318 316 315 318 316 317 317 310 313 314 315 324 318 318 323 325 331 331 334 337 338 339 329 331 332
313 313 314 313 313 313 313 314 314 313 312 312 314 313 315 315 313 313 312 313 314 314 314 313 314 317 318 318 314 314 316 316 316 326 322 317 323 325 331 333 334 334 336 335 330 331 330
316 314 314 314 313 314 314 314 313 313 312 313 313 314 314 313 312 312 312 312 312 313 313 314 317 318 317 317 312 312 314 314 315 317 321 318 320 325 332 333 328 328 331 329 330 331 329
316 315 314 313 313 313 313 313 312 312 312 313 313 314 313 311 312 311 311 311 312 312 313 314 316 318 316 312 315 315 316 316 315 316 317 321 323 324 327 327 328 330 331 332 331 329 325
315 315 315 314 313 313 313 312 313 312 312 312 313 313 311 311 312 312 312 312 312 312 313 314 317 317 318 317 317 316 316 316 315 315 317 321 323 326 333 329 329 332 333 336 328 329 329
315 314 314 314 314 313 312 313 312 312 312 312 312 311 311 311 312 312 312 311 315 315 316 317 317 316 315 318 315 314 316 315 315 317 317 320 324 328 333 330 334 332 334 335 336 336 333
314 314 314 314 313 313 313 311 311 312 312 311 311 312 311 311 311 311 309 317 313 317 317 315 317 316 316 315 314 314 316 314 315 317 321 323 327 331 334 332 333 331 331 334 334 338 338
314 314 314 314 313 313 312 311 311 311 311 311 312 312 312 311 311 312 313 316 316 315 318 317 317 317 316 317 316 315 316 314 316 321 323 325 329 329 331 333 334 335 335 337 329 324 324
314 314 314 313 313 313 311 310 309 308 309 309 311 311 312 312 311 316 317 316 316 316 318 320 320 319 319 318 318 317 315 315 319 321 324 326 327 329 332 332 334 334 334 334 334 328 323
314 315 314 312 312 313 311 310 309 310 308 307 306 310 311 312 316 314 318 317 314 316 321 322 320 319 317 319 321 317 318 319 319 321 323 326 328 329 331 333 333 334 330 331 324 325 329
314 313 313 312 310 313 311 310 309 308 308 308 307 307 309 311 311 313 318 315 315 317 323 320 319 317 318 320 320 317 318 320 321 322 325 331 330 329 332 334 331 333 327 328 326 324 319
318 315 313 311 310 310 312 310 310 308 307 307 308 307 307 314 313 317 316 315 316 327 327 321 319 320 319 319 320 318 319 319 320 323 325 327 325 326 323 323 327 323 323 323 319 318 318
318 318 316 312 310 310 309 310 309 309 306 306 308 307 307 307 314 313 314 315 323 326 322 321 321 320 322 322 320 317 318 320 322 325 326 323 321 321 325 323 323 321 321 323 324 319 318
317 319 317 316 311 310 309 309 307 308 306 306 306 307 308 308 310 310 315 317 327 320 321 320 322 321 323 322 320 318 318 320 321 320 325 322 322 321 323 325 320 322 319 323 326 324 323
316 318 317 316 315 311 309 308 307 306 307 306 306 310 314 310 314 316 313 321 323 319 320 321 320 322 323 323 321 319 318 319 315 318 323 327 319 317 317 319 319 321 320 318 316 316 315
315 316 316 316 316 314 310 308 307 306 306 307 308 311 314 315 315 316 316 320 318 317 320 321 322 322 324 322 323 319 320 317 318 314 314 319 317 316 316 316 316 318 317 315 314 316 318
312 315 315 314 316 314 312 309 306 305 308 308 312 310 314 315 315 313 318 316 317 315 316 318 322 323 322 325 321 321 320 317 313 315 313 315 318 317 315 316 317 314 317 316 314 316 316
303 306 314 314 315 314 312 311 307 305 309 311 311 311 313 315 313 313 314 317 314 316 315 315 316 318 321 318 319 320 322 320 313 313 314 313 314 314 314 311 311 314 316 314 314 315 313
307 302 307 316 313 314 314 312 309 307 310 315 311 308 312 313 312 312 312 314 315 315 315 315 316 316 316 319 321 321 317 312 312 314 315 312 313 312 312 311 309 312 314 315 313 312 314
309 305 303 309 314 312 312 313 311 307 307 313 308 311 307 307 308 312 312 312 315 313 313 314 313 313 314 316 317 319 316 313 311 314 313 311 313 312 316 316 311 310 312 314 311 310 310
308 305 304 304 304 312 311 312 312 308 307 312 306 307 308 309 310 310 310 311 313 315 312 311 311 312 313 313 315 317 314 312 312 314 311 310 312 310 309 310 310 311 312 312 311 310 311
307 306 305 303 304 308 311 311 312 309 309 312 307 310 308 310 310 312 310 310 312 314 314 313 312 312 311 312 312 313 315 313 313 311 310 308 312 311 311 311 311 312 312 311 311 311 311
308 308 308 307 304 305 305 312 312 309 310 312 310 311 307 308 309 312 312 312 313 311 311 310 309 309 311 311 310 310 309 308 310 309 309 308 310 313 316 315 315 314 314 313 312 312 311
308 307 307 308 306 306 306 310 312 310 309 309 310 312 308 311 310 312 313 313 312 310 310 308 307 309 310 308 308 309 309 309 309 309 309 310 312 314 315 315 317 313 310 310 312 313 311
308 308 307 308 307 306 305 308 312 311 310 311 311 310 309 310 310 312 312 313 311 308 309 309 306 306 305 309 310 310 310 311 310 308 308 308 313 315 316 316 314 310 309 309 310 311 310
308 308 308 308 307 306 306 305 311 312 310 311 311 311 311 310 309 310 312 311 310 307 307 307 305 305 307 309 312 314 316 314 315 312 309 309 308 313 312 313 311 310 308 309 306 303 310
306 307 308 308 307 307 306 306 306 308 309 310 310 311 310 311 309 310 310 309 307 307 306 305 306 307 305 309 312 315 318 316 316 316 310 310 309 310 311 310 311 310 307 308 301 302 309
306 306 307 307 307 307 306 305 306 305 305 306 309 310 310 310 309 310 310 308 307 307 308 305 304 304 304 307 311 314 315 315 314 312 310 310 308 308 309 311 311 306 307 304 304 309 308
306 306 306 306 306 306 306 305 305 305 307 308 308 309 310 310 311 311 309 307 307 306 305 304 306 307 306 306 310 316 316 314 314 314 310 310 310 311 308 309 307 305 307 308 307 307 308